Beckley, WV

2:50 PM EDT on September 18, 2019 (GMT -0400)
Raleigh County Memorial

Weather History for KBKW - August, 2019

Change the Weather History Date:

Monday, August 19, 2019

  Actual Average Record
Temperature  
Mean Temperature 76 °F 70 °F  
Max Temperature 86 °F 79 °F 98 °F (1911)
Min Temperature 67 °F 60 °F 41 °F (1943)
Degree Days  
Heating Degree Days 0 0  
Month to date heating degree days 0 0  
Since 1 June heating degree days 36 47  
Since 1 July heating degree days 3 8  
Cooling Degree Days 12 5  
Month to date cooling degree days 141 108  
Year to date cooling degree days 642 441  
Since 1 June cooling degree days 522 400  
Growing Degree Days 26 (Base 50)    
Moisture  
Dew Point 64 °F    
Average Humidity 64    
Maximum Humidity 81    
Minimum Humidity 48    
Precipitation  
Precipitation 0.00 in 0.10 in 1.51 in (1969)
Month to date precipitation 3.02 2.35  
Year to date precipitation 31.14 28.54  
Sea Level Pressure  
Sea Level Pressure 30.04 in    
Wind  
Wind Speed 3 mph ()    
Max Wind Speed 10 mph    
Max Gust Speed 13 mph    
Visibility 10.0 miles    
Events      
T = Trace of Precipitation, MM = Missing Value Source: Averaged Metar Reports

Daily Weather History Graph

Daily Weather History Graph

Search for Another Location

Airport or City:

Astronomy

Aug. 19, 2019 Rise Set
Actual Time 6:43 AM EDT 8:12 PM EDT
Civil Twilight 6:15 AM EDT 8:40 PM EDT
Nautical Twilight 5:42 AM EDT 9:13 PM EDT
Astronomical Twilight 5:07 AM EDT 9:48 PM EDT
Moon 10:37 PM EDT (8/19) 10:19 AM EDT (8/19)
Length of Visible Light 14h 24m
Length of Day
13h 29m
Waning Gibbous, 85% of the Moon is Illuminated
Aug 19
Waning Gibbous
Aug 23
Last Quarter
Aug 30
New
Sep 5
First Quarter
Sep 14
Full

Hourly Weather History & Observations

Time (EDT) Temp. Heat Index Dew Point Humidity Pressure Visibility Wind Dir Wind Speed Gust Speed Precip Events Conditions
2:51 AM 70.0 °F - 61.0 °F 73% 29.99 in 10.0 mi SSW 5.8 mph - N/A   Clear
3:51 AM 70.0 °F - 61.0 °F 73% 29.99 in 10.0 mi SW 3.5 mph - N/A   Partly Cloudy
4:51 AM 69.1 °F - 61.0 °F 75% 29.99 in 10.0 mi South 4.6 mph - N/A   Partly Cloudy
5:51 AM 68.0 °F - 61.0 °F 78% 30.01 in 10.0 mi Calm Calm - N/A   Clear
6:51 AM 68.0 °F - 61.0 °F 78% 30.02 in 10.0 mi South 5.8 mph - N/A   Clear
7:51 AM 71.1 °F - 63.0 °F 75% 30.06 in 10.0 mi Calm Calm - N/A   Clear
8:51 AM 73.9 °F - 64.0 °F 71% 30.07 in 10.0 mi Calm Calm - N/A   Clear
9:51 AM 78.1 °F - 64.9 °F 64% 30.06 in 10.0 mi Calm Calm - N/A   Clear
10:51 AM 82.0 °F 83.8 °F 64.9 °F 56% 30.06 in 10.0 mi North 3.5 mph - N/A   Clear
11:51 AM 82.9 °F 84.6 °F 64.9 °F 54% 30.06 in 10.0 mi Calm Calm - N/A   Clear
12:51 PM 84.0 °F 85.4 °F 64.0 °F 51% 30.06 in 10.0 mi Variable 4.6 mph - N/A   Scattered Clouds
1:51 PM 84.9 °F 86.6 °F 64.9 °F 51% 30.06 in 10.0 mi NW 5.8 mph - N/A   Partly Cloudy
2:51 PM 84.0 °F 85.4 °F 64.0 °F 51% 30.06 in 10.0 mi Variable 5.8 mph - N/A   Partly Cloudy
3:51 PM 84.9 °F 86.6 °F 64.9 °F 51% 30.03 in 10.0 mi North 4.6 mph - N/A   Partly Cloudy
4:51 PM 86.0 °F 87.3 °F 64.0 °F 48% 30.01 in 10.0 mi Variable 3.5 mph - N/A   Partly Cloudy
5:51 PM 84.9 °F 86.6 °F 64.9 °F 51% 30.01 in 10.0 mi North 5.8 mph - N/A   Clear
6:51 PM 84.0 °F 85.8 °F 64.9 °F 53% 30.01 in 10.0 mi NNE 4.6 mph - N/A   Clear
7:51 PM 80.1 °F 82.3 °F 66.9 °F 64% 30.03 in 10.0 mi Calm Calm - N/A   Clear
8:51 PM 75.0 °F - 66.0 °F 73% 30.04 in 10.0 mi Calm Calm - N/A   Clear
9:51 PM 75.0 °F - 64.9 °F 71% 30.06 in 10.0 mi Calm Calm - N/A   Clear
10:51 PM 73.9 °F - 66.0 °F 76% 30.06 in 10.0 mi SSE 3.5 mph - N/A   Clear
11:51 PM 71.1 °F - 64.9 °F 81% 30.07 in 10.0 mi SE 3.5 mph - N/A   Partly Cloudy